Regional Weather Roundup
Issued by NWS

Home | Current Version | Previous Version | Graphics & Text | Print | Product List | Glossary On
Versions: 1 2 3 4 5 6 7 8 9 10 11 12 13 14 15 16 17 18 19 20 21 22 23 24 25 26 27 28 29 30 31 32 33 34 35 36 37 38 39 40 41 42 43 44 45 46 47 48 49 50
000
ASUS43 KLMK 020610
RWRKY
KENTUCKY REGIONAL WEATHER ROUNDUP
NATIONAL WEATHER SERVICE LOUISVILLE KY
200 AM EDT TUE JUN 02 2015

NOTE "FAIR" INDICATES FEW OR NO CLOUDS BELOW 12,000 FEET
WITH NO SIGNIFICANT WEATHER AND/OR OBSTRUCTIONS TO VISIBILITY.

KYZ001>023-026-027-061>063-070>075-020700-
WESTERN AND SOUTH CENTRAL KENTUCKY

CITY           SKY/WX    TMP DP  RH WIND       PRES   REMARKS
PADUCAH        CLOUDY    61  55  81 NE5       30.09F
HENDERSON      CLOUDY    61  54  77 E9        30.10F
OWENSBORO      CLOUDY    60  55  83 NE7       30.11F
HOPKINSVILLE   CLOUDY    59  59 100 N6        30.08F
BOWLING GREEN  CLOUDY    60  56  86 NE8       30.09F
GLASGOW        CLOUDY    57  57 100 NE7       30.09F FOG
$$

KYZ024-025-028>034-038-045-046-053-020700-
NORTH CENTRAL KENTUCKY

CITY           SKY/WX    TMP DP  RH WIND       PRES   REMARKS
LOUISVILLE/SDF CLOUDY    59  53  80 E6        30.11F
LOUISVILLE/LOU CLOUDY    58  53  84 E8        30.12F
FORT KNOX      CLOUDY    56  53  87 NE6       30.09F
$$

KYZ035>037-039>044-047>052-055>060-089>105-020700-
NORTHEAST KENTUCKY

CITY           SKY/WX    TMP DP  RH WIND       PRES   REMARKS
LEXINGTON      CLOUDY    54  53  97 NE9       30.11F FOG
COVINGTON      CLOUDY    54  48  80 NE10      30.13F
FRANKFORT      CLOUDY    56  52  86 NE6       30.11F
$$

KYZ054-064>069-076>088-106>120-020700-
SOUTHEAST KENTUCKY

CITY           SKY/WX    TMP DP  RH WIND       PRES   REMARKS
JACKSON        CLOUDY    54  53  97 CALM      30.10F FOG
LONDON         CLOUDY    58  54  86 N5        30.09F FOG
SOMERSET       CLOUDY    55  55 100 NE6       30.11S
MIDDLESBORO    CLOUDY    64  63  97 CALM      30.07F
MONTICELLO     CLOUDY    58  58 100 NE7       30.12S FOG
$$




USA.gov is the U.S. government's official web portal to all federal, state and local government web resources and services.